Hourly Data Report for April 17, 2018

CLYDE RIVER A
NUNAVUT
Current Station Operator: NAVCAN

70°29'09.000" N
68°31'01.000" W
26.50 m
2400804
71090
YCY

Download Data

Hourly Data (April 2018)
Hourly Data Report for April 17, 2018
TIME
LST
Temp Definition
°C
Dew Point Definition
°C
Rel Hum Definition
%
Precip. Amount Definition
mm

Wind Dir Definition
10's deg

Wind Spd Definition
km/h
Visibility Definition
km
Stn Press Definition
kPa
Hmdx Definition


Wind Chill Definition


Weather Definition


00:00 -14.4 -16.1 87 0.0 33 17 16.1 101.95   -23 Snow
01:00 -15.1 -16.8 87 0.0 33 13 16.1 101.98   -22 Snow
02:00 -15.8 -17.5 87 0.0 32 8 16.1 102.01   -21 Snow
03:00 -16.4 -18.5 84 0.0 31 8 16.1 102.02   -22 Snow
04:00 -16.8 -19.0 83 0.0 31 8 16.1 102.05   -22 Snow
05:00 -19.1 -21.0 85 0.0 29 8 16.1 102.08   -25 Snow
06:00 -18.2 -19.7 88 0.0 28 5 16.1 102.09   -22 LegendNANA
07:00 -18.0 -20.2 83 0.0 28 8 16.1 102.08   -24 LegendNANA
08:00 -17.4 -19.8 82 0.0 28 4 16.1 102.08   -21 LegendNANA
09:00 -16.5 -19.0 82 0.0   0 16.1 102.06     LegendNANA
10:00 -15.9 -19.1 77 0.0 24 8 16.1 102.07   -21 LegendNANA
11:00 -14.8 -18.0 77 0.0 25 4 16.1 102.07   -18 LegendNANA
12:00 -15.4 -17.8 82 0.0   0 16.1 102.07     LegendNANA
13:00 -15.0 -17.4 82 0.0 4 5 16.1 102.08   -19 LegendNANA
14:00 -15.0 -16.8 86 0.0 1 5 16.1 102.09   -19 LegendNANA
15:00 -15.0 -17.1 84 0.0 1 5 16.1 102.13   -19 LegendNANA
16:00 -15.5 -17.5 85 0.0 35 4 16.1 102.15   -18 LegendNANA
17:00 -16.5 -18.8 83 0.0 33 8 16.1 102.18   -22 LegendNANA
18:00 -17.9 -19.8 85 0.0 29 5 16.1 102.20   -22 LegendNANA
19:00 -18.6 -20.5 85 0.0 23 5 16.1 102.23   -23 LegendNANA
20:00 -19.5 -21.9 82 0.0 28 8 16.1 102.26   -26 LegendNANA
21:00 -19.6 -21.3 87 0.0 29 8 16.1 102.30   -26 LegendNANA
22:00 -20.1 -21.7 87 0.0 27 11 16.1 102.28   -28 LegendNANA
23:00 -20.0 -21.7 87 0.0 25 8 16.1 102.28   -26 LegendNANA

Notes on Data Quality.

Legend

  • E = Estimated
  • M = Missing
  • NA = Not Available*
  • [empty] = Indicates an unobserved value
Date modified: